Panama City, FL

4:15 PM CDT on April 24, 2018 (GMT -0500)
Northwest Florida Beaches International

Weather History for KECP - May, 2013

Change the Weather History Date:

Sunday, May 19, 2013

  Actual Average Record
Temperature  
Mean Temperature 75 °F -  
Max Temperature 86 °F - 91 °F (2015)
Min Temperature 64 °F - 51 °F (2011)
Degree Days  
Heating Degree Days 0    
Cooling Degree Days 10    
Growing Degree Days 24 (Base 50)    
Moisture  
Dew Point 66 °F    
Average Humidity 76    
Maximum Humidity 100    
Minimum Humidity 51    
Precipitation  
Precipitation 0.00 in - 0.01 in (2015)
Month to date precipitation  
Year to date precipitation  
Sea Level Pressure  
Sea Level Pressure 30.06 in    
Wind  
Wind Speed 1 mph (South)    
Max Wind Speed 26 mph    
Max Gust Speed 28 mph    
Visibility 5 miles    
Events Fog    
T = Trace of Precipitation, MM = Missing Value Source: NWS Daily Summary

Daily Weather History Graph

Daily Weather History Graph

Search for Another Location

Airport or City:

Astronomy

May. 19, 2013 Rise Set
Actual Time 6:46 AM EDT 8:33 PM EDT
Civil Twilight 6:20 AM EDT 8:59 PM EDT
Nautical Twilight 5:48 AM EDT 9:31 PM EDT
Astronomical Twilight 5:14 AM EDT 10:05 PM EDT
Moon 2:59 PM EDT (5/19) 2:44 AM EDT (5/19)
Length of Visible Light 14h 39m
Length of Day
13h 46m
Waxing Gibbous, 65% of the Moon is Illuminated
May 19
Waxing Gibbous
May 25
Full
May 31
Last Quarter
Jun 8
New
Jun 16
First Quarter

Hourly Weather History & Observations

Time (EDT) Temp. Heat Index Dew Point Humidity Pressure Visibility Wind Dir Wind Speed Gust Speed Precip Events Conditions
12:53 AM 69.1 °F - 66.9 °F 93% 30.09 in 7.0 mi Calm Calm - N/A   Clear
1:22 AM 68.0 °F - 66.2 °F 94% 30.05 in 2.0 mi Calm Calm - N/A   Partly Cloudy
1:30 AM 68.0 °F - 66.2 °F 94% 30.05 in 1.5 mi Calm Calm - N/A   Partly Cloudy
1:36 AM 68.0 °F - 66.2 °F 94% 30.05 in 3.0 mi Calm Calm - N/A   Scattered Clouds
1:53 AM 68.0 °F - 66.0 °F 93% 30.08 in 4.0 mi Calm Calm - N/A   Partly Cloudy
2:08 AM 66.2 °F - 64.4 °F 94% 30.04 in 2.5 mi Calm Calm - N/A   Mostly Cloudy
2:14 AM 66.2 °F - 64.4 °F 94% 30.04 in 1.8 mi Calm Calm - N/A   Mostly Cloudy
2:24 AM 66.2 °F - 64.4 °F 94% 30.04 in 0.5 mi Calm Calm - N/A Fog Fog
2:31 AM 66.2 °F - 64.4 °F 94% 30.03 in 0.2 mi Calm Calm - N/A Fog Fog
2:53 AM 64.9 °F - 63.0 °F 93% 30.05 in 0.2 mi Calm Calm - N/A Fog Fog
3:17 AM 64.4 °F - 62.6 °F 94% 30.01 in 0.5 mi Calm Calm - N/A Fog Fog
3:28 AM 64.4 °F - 62.6 °F 94% 30.00 in 0.2 mi Calm Calm - N/A Fog Fog
3:40 AM 64.4 °F - 62.6 °F 94% 30.00 in 0.5 mi Calm Calm - N/A Fog Fog
3:53 AM 64.0 °F - 62.1 °F 93% 30.04 in 0.8 mi Calm Calm - N/A   Mist
4:16 AM 64.4 °F - 62.6 °F 94% 30.01 in 0.2 mi Calm Calm - N/A Fog Fog
4:45 AM 64.4 °F - 62.6 °F 94% 30.02 in 0.5 mi Calm Calm - N/A Fog Fog
4:53 AM 64.9 °F - 63.0 °F 93% 30.06 in 0.2 mi Calm Calm - N/A Fog Fog
5:44 AM 66.2 °F - 64.4 °F 94% 30.04 in 0.2 mi Calm Calm - N/A Fog Fog
5:53 AM 66.2 °F - 64.4 °F 94% 30.04 in 0.2 mi Calm Calm - N/A Fog Fog
6:53 AM 66.9 °F - 66.0 °F 97% 30.10 in 0.1 mi Calm Calm - N/A Fog Fog
7:31 AM 66.2 °F - 66.2 °F 100% 30.07 in 0.2 mi Calm Calm - N/A Fog Fog
7:53 AM 66.2 °F - 66.2 °F 100% 30.08 in 0.2 mi Calm Calm - N/A Fog Fog
8:51 AM 71.6 °F - 69.8 °F 94% 30.08 in 1.0 mi Calm Calm - N/A   Mostly Cloudy
8:53 AM 71.1 °F - 69.1 °F 93% 30.12 in 1.0 mi Calm Calm - N/A   Mostly Cloudy
8:56 AM 71.6 °F - 69.8 °F 94% 30.08 in 6.0 mi Calm Calm - N/A   Mostly Cloudy
9:05 AM 71.6 °F - 69.8 °F 94% 30.08 in 9.0 mi Calm Calm - N/A   Scattered Clouds
9:53 AM 77.0 °F - 69.1 °F 76% 30.12 in 10.0 mi Calm Calm - N/A   Scattered Clouds
10:53 AM 80.1 °F 82.3 °F 66.9 °F 64% 30.12 in 10.0 mi Variable 3.5 mph - N/A   Scattered Clouds
11:53 AM 82.0 °F 84.9 °F 68.0 °F 62% 30.10 in 10.0 mi SSE 6.9 mph - N/A   Scattered Clouds
12:53 PM 84.0 °F 86.5 °F 66.9 °F 56% 30.09 in 10.0 mi SSE 9.2 mph - N/A   Partly Cloudy
1:53 PM 84.0 °F 86.3 °F 66.0 °F 55% 30.08 in 10.0 mi SSE 10.4 mph 27.6 mph N/A   Clear
2:53 PM 84.9 °F 86.6 °F 64.9 °F 51% 30.06 in 10.0 mi SSE 9.2 mph 19.6 mph N/A   Clear
3:53 PM 84.0 °F 85.8 °F 64.9 °F 53% 30.06 in 10.0 mi South 12.7 mph 27.6 mph N/A   Clear
4:53 PM 84.0 °F 85.8 °F 64.9 °F 53% 30.06 in 10.0 mi SSE 11.5 mph - N/A   Partly Cloudy
5:53 PM 81.0 °F 82.7 °F 64.9 °F 58% 30.06 in 10.0 mi SSE 8.1 mph - N/A   Clear
6:53 PM 79.0 °F - 64.9 °F 62% 30.04 in 10.0 mi SW 12.7 mph 19.6 mph N/A   Clear
7:53 PM 77.0 °F - 66.9 °F 71% 30.04 in 10.0 mi SW 9.2 mph - N/A   Clear
8:53 PM 75.0 °F - 66.9 °F 76% 30.05 in 10.0 mi SW 3.5 mph - N/A   Clear
9:53 PM 75.0 °F - 68.0 °F 79% 30.08 in 10.0 mi SSE 3.5 mph - N/A   Clear
10:53 PM 73.0 °F - 69.1 °F 87% 30.09 in 10.0 mi SW 3.5 mph - N/A   Clear
11:53 PM 69.8 °F - 66.2 °F 88% 30.07 in 8.0 mi Calm Calm - N/A   Clear